EW0609 Weather Reports


time (UTC)temp
C
wind
direction
speed
KPH
gust
KPH
rain 1hr
cm
rain 24hr
cm
rain mn
cm
humidity
%
barometer
mb
20260906095308 25 164 3.2 14.5 0.00 0.00 0.00 58 1016.5
20260906094808 25 175 4.8 11.3 0.00 0.00 0.00 58 1016.5
20260906094540 25 138 6.4 11.3 0.00 0.00 0.00 58 1016.5
20260906093810 25 121 3.2 11.3 0.00 0.00 0.00 58 1016.6
20260906093638 25 169 6.4 11.3 0.00 0.00 0.00 58 1016.6
20260906092808 25 180 4.8 11.3 0.00 0.00 0.00 57 1016.6
20260906092311 25 148 3.2 9.7 0.00 0.00 0.00 57 1016.6
20260906092012 25 149 3.2 9.7 0.00 0.00 0.00 57 1016.6
20260906091920 25 203 4.8 9.7 0.00 0.00 0.00 57 1016.6
20260906090807 25 180 1.6 9.7 0.00 0.00 0.00 57 1016.5
20260906090309 25 159 3.2 9.7 0.00 0.00 0.00 57 1016.6
20260906085808 25 159 6.4 17.7 0.00 0.00 0.00 57 1016.5
20260906085533 25 173 4.8 17.7 0.00 0.00 0.00 57 1016.6
20260906085316 25 173 4.8 17.7 0.00 0.00 0.00 57 1016.6
20260906084808 25 159 4.8 11.3 0.00 0.00 0.00 57 1016.6
20260906084309 25 161 4.8 11.3 0.00 0.00 0.00 56 1016.6
20260906084010 25 178 3.2 9.7 0.00 0.00 0.00 56 1016.5
20260906083925 25 155 6.4 11.3 0.00 0.00 0.00 57 1016.6
20260906082809 25 219 3.2 11.3 0.00 0.00 0.00 55 1016.5
20260906082310 26 145 4.8 11.3 0.00 0.00 0.00 55 1016.5
20260906081807 26 171 6.4 9.7 0.00 0.00 0.00 55 1016.5
20260906081639 26 183 4.8 14.5 0.00 0.00 0.00 54 1016.6
20260906080809 26 173 6.4 14.5 0.00 0.00 0.00 54 1016.6
20260906080308 26 169 3.2 16.1 0.00 0.00 0.00 54 1016.6
20260906075812 26 192 8.0 16.1 0.00 0.00 0.00 53 1016.6
20260906075632 26 154 3.2 14.5 0.00 0.00 0.00 53 1016.6
20260906074808 26 116 6.4 17.7 0.00 0.00 0.00 53 1016.5
20260906074308 26 137 6.4 17.7 0.00 0.00 0.00 53 1016.5
20260906073809 27 124 4.8 17.7 0.00 0.00 0.00 53 1016.5
20260906073308 27 159 4.8 17.7 0.00 0.00 0.00 52 1016.5
20260906072809 27 127 6.4 17.7 0.00 0.00 0.00 52 1016.5
20260906072307 27 147 8.0 16.1 0.00 0.00 0.00 52 1016.6
20260906072138 27 152 6.4 19.3 0.00 0.00 0.00 52 1016.6
20260906071309 27 102 8.0 19.3 0.00 0.00 0.00 52 1016.6
20260906070809 27 155 8.0 17.7 0.00 0.00 0.00 52 1016.7
20260906070309 27 151 4.8 17.7 0.00 0.00 0.00 52 1016.8
20260906065808 27 148 6.4 11.3 0.00 0.00 0.00 52 1016.7
20260906065647 27 144 6.4 16.1 0.00 0.00 0.00 52 1016.7
20260906065140 27 186 8.0 16.1 0.00 0.00 0.00 52 1016.6
20260906064634 27 123 4.8 11.3 0.00 0.00 0.00 52 1016.6
20260906063808 27 99 4.8 11.3 0.00 0.00 0.00 52 1016.6
20260906063308 27 114 3.2 14.5 0.00 0.00 0.00 52 1016.6
20260906062813 27 175 6.4 14.5 0.00 0.00 0.00 52 1016.7
20260906062308 27 116 6.4 14.5 0.00 0.00 0.00 52 1016.7
20260906061809 27 135 6.4 16.1 0.00 0.00 0.00 52 1016.6
20260906061308 27 124 4.8 16.1 0.00 0.00 0.00 52 1016.7
20260906060811 27 127 4.8 14.5 0.00 0.00 0.00 51 1016.8
20260906060311 27 93 4.8 14.5 0.00 0.00 0.00 51 1016.8
20260906055808 27 102 6.4 14.5 0.00 0.00 0.00 50 1016.7
20260906055308 27 151 4.8 14.5 0.00 0.00 0.00 50 1016.7
20260906055147 27 116 8.0 14.5 0.00 0.00 0.00 50 1016.7
20260906054307 27 79 6.4 14.5 0.00 0.00 0.00 50 1016.7
20260906053808 27 144 6.4 14.5 0.00 0.00 0.00 49 1016.8
20260906053309 27 111 6.4 14.5 0.00 0.00 0.00 49 1016.6
20260906052809 28 104 6.4 14.5 0.00 0.00 0.00 49 1016.7
20260906052634 28 103 6.4 17.7 0.00 0.00 0.00 49 1016.5
20260906051808 28 111 8.0 17.7 0.00 0.00 0.00 49 1016.6
20260906051308 27 120 8.0 17.7 0.00 0.00 0.00 49 1016.6
20260906050808 27 109 4.8 9.7 0.00 0.00 0.00 50 1016.7
20260906050308 27 116 4.8 17.7 0.00 0.00 0.00 50 1016.6
20260906045831 27 144 4.8 17.7 0.00 0.00 0.00 49 1016.7
20260906045430 28 123 6.4 16.1 0.00 0.00 0.00 49 1016.6
20260906044312 28 116 6.4 14.5 0.00 0.00 0.00 49 1016.6
20260906043808 28 145 6.4 16.1 0.00 0.00 0.00 48 1016.7
20260906043307 28 151 9.7 16.1 0.00 0.00 0.00 48 1016.7
20260906043117 28 113 8.0 16.1 0.00 0.00 0.00 47 1016.7
20260906042308 28 83 8.0 19.3 0.00 0.00 0.00 47 1016.7
20260906041807 28 102 8.0 19.3 0.00 0.00 0.00 46 1016.7
20260906041635 28 110 6.4 16.1 0.00 0.00 0.00 46 1016.7
20260906041133 29 99 8.0 16.1 0.00 0.00 0.00 46 1016.6
20260906040309 29 104 9.7 22.5 0.00 0.00 0.00 46 1016.6
20260906040143 29 169 8.0 22.5 0.00 0.00 0.00 45 1016.6
20260906035317 29 111 9.7 17.7 0.00 0.00 0.00 45 1016.6
20260906034809 29 125 9.7 17.7 0.00 0.00 0.00 45 1016.6
20260906034648 29 104 6.4 16.1 0.00 0.00 0.00 44 1016.6
20260906033809 29 102 8.0 14.5 0.00 0.00 0.00 44 1016.7
20260906033307 29 111 6.4 11.3 0.00 0.00 0.00 44 1016.6
20260906032809 30 130 4.8 11.3 0.00 0.00 0.00 44 1016.6
20260906032519 30 111 8.0 17.7 0.00 0.00 0.00 43 1016.4
20260906032418 30 148 3.2 17.7 0.00 0.00 0.00 43 1016.5
20260906031308 30 121 6.4 19.3 0.00 0.00 0.00 43 1016.4
20260906031142 30 113 6.4 19.3 0.00 0.00 0.00 44 1016.3
20260906030637 30 164 11.3 19.3 0.00 0.00 0.00 44 1016.1
20260906025845 30 107 9.7 24.1 0.00 0.00 0.00 43 1015.8
20260906025438 30 125 9.7 24.1 0.00 0.00 0.00 43 1015.7
20260906024308 30 151 9.7 22.5 0.00 0.00 0.00 43 1015.6
20260906023812 30 113 12.9 20.9 0.00 0.00 0.00 43 1015.5
20260906023308 30 107 9.7 20.9 0.00 0.00 0.00 43 1015.4
20260906023137 30 87 9.7 20.9 0.00 0.00 0.00 44 1015.3
20260906022310 30 111 12.9 20.9 0.00 0.00 0.00 44 1015.3
20260906021807 30 138 12.9 19.3 0.00 0.00 0.00 44 1015.3
20260906021641 30 111 11.3 19.3 0.00 0.00 0.00 44 1015.3
20260906020807 30 158 9.7 17.7 0.00 0.00 0.00 45 1015.3
20260906020308 30 102 8.0 19.3 0.00 0.00 0.00 45 1015.3
20260906015809 30 97 9.7 19.3 0.00 0.00 0.00 45 1015.3
20260906015312 30 118 9.7 19.3 0.00 0.00 0.00 44 1015.2
20260906014810 31 102 6.4 20.9 0.00 0.00 0.00 43 1015.1
20260906014310 31 133 9.7 22.5 0.00 0.00 0.00 43 1014.7
20260906013813 31 125 9.7 22.5 0.00 0.00 0.00 43 1014.6
20260906013536 31 102 9.7 20.9 0.00 0.00 0.00 43 1014.5
20260906012808 31 100 9.7 22.5 0.00 0.00 0.00 42 1014.5
20260906012315 31 79 9.7 22.5 0.00 0.00 0.00 42 1014.5
20260906011808 31 104 8.0 19.3 0.00 0.00 0.00 42 1014.6
20260906011307 31 154 9.7 19.3 0.00 0.00 0.00 42 1014.4
20260906010807 31 125 6.4 17.7 0.00 0.00 0.00 41 1014.5
20260906010731 32 116 9.7 19.3 0.00 0.00 0.00 41 1014.5
20260906005809 32 85 9.7 19.3 0.00 0.00 0.00 40 1014.5
20260906005307 32 103 9.7 19.3 0.00 0.00 0.00 40 1014.6
20260906004810 32 96 9.7 20.9 0.00 0.00 0.00 40 1014.6
20260906004316 32 97 12.9 20.9 0.00 0.00 0.00 40 1014.4
20260906003808 32 114 8.0 16.1 0.00 0.00 0.00 39 1014.4
20260906003308 33 127 6.4 19.3 0.00 0.00 0.00 39 1014.3
20260906002807 33 138 11.3 24.1 0.00 0.00 0.00 39 1014.4
20260906002530 33 117 9.7 24.1 0.00 0.00 0.00 39 1014.4
20260906001807 33 86 12.9 22.5 0.00 0.00 0.00 38 1014.3
20260906001741 33 109 12.9 22.5 0.00 0.00 0.00 38 1014.2
20260906000809 33 134 9.7 24.1 0.00 0.00 0.00 38 1014.2
20260906000311 33 110 11.3 24.1 0.00 0.00 0.00 38 1014.0
20260905235812 33 130 11.3 22.5 0.00 0.00 0.00 38 1013.9
20260905235308 34 131 11.3 22.5 0.00 0.00 0.00 37 1013.9
20260905235036 35 104 11.3 22.5 0.00 0.00 0.00 34 1013.8
20260905234814 35 104 11.3 22.5 0.00 0.00 0.00 34 1013.8
20260905234313 34 118 6.4 16.1 0.00 0.00 0.00 34 1013.8
20260905234044 34 161 6.4 14.5 0.00 0.00 0.00 34 1013.7
20260905233812 34 161 6.4 14.5 0.00 0.00 0.00 34 1013.7
20260905233521 34 133 6.4 17.7 0.00 0.00 0.00 35 1013.4
20260905233401 34 97 8.0 14.5 0.00 0.00 0.00 34 1013.5
20260905232308 34 106 9.7 17.7 0.00 0.00 0.00 34 1013.4
20260905231814 34 133 8.0 16.1 0.00 0.00 0.00 35 1013.4
20260905231311 34 111 6.4 20.9 0.00 0.00 0.00 35 1013.4
20260905230904 35 97 9.7 19.3 0.00 0.00 0.00 34 1013.4
20260905230829 34 142 9.7 20.9 0.00 0.00 0.00 35 1013.4
20260905225810 35 113 8.0 16.1 0.00 0.00 0.00 33 1013.4
20260905225737 35 125 6.4 14.5 0.00 0.00 0.00 34 1013.4
20260905224812 35 180 6.4 16.1 0.00 0.00 0.00 33 1013.5
20260905224537 35 200 6.4 20.9 0.00 0.00 0.00 33 1013.4
20260905224311 35 200 6.4 20.9 0.00 0.00 0.00 33 1013.4
20260905223811 35 152 8.0 20.9 0.00 0.00 0.00 32 1013.5
20260905223536 35 110 4.8 19.3 0.00 0.00 0.00 32 1013.4
20260905223320 35 110 4.8 19.3 0.00 0.00 0.00 32 1013.4
20260905222818 36 121 9.7 20.9 0.00 0.00 0.00 32 1013.4
20260905222808 36 87 8.0 19.3 0.00 0.00 0.00 31 1013.4
20260905221812 36 188 6.4 25.7 0.00 0.00 0.00 32 1013.4
20260905221720 36 137 9.7 25.7 0.00 0.00 0.00 32 1013.4
20260905220812 36 85 9.7 20.9 0.00 0.00 0.00 33 1013.5
20260905220313 35 149 6.4 17.7 0.00 0.00 0.00 34 1013.5
20260905215812 35 103 8.0 20.9 0.00 0.00 0.00 33 1013.6
20260905215307 36 103 12.9 22.5 0.00 0.00 0.00 32 1013.6
20260905214812 36 96 8.0 22.5 0.00 0.00 0.00 33 1013.7
20260905214324 36 180 11.3 25.7 0.00 0.00 0.00 33 1013.8
20260905214033 36 124 11.3 25.7 0.00 0.00 0.00 33 1013.8
20260905213811 36 124 11.3 25.7 0.00 0.00 0.00 33 1013.8
20260905213312 37 96 9.7 20.9 0.00 0.00 0.00 32 1013.9
20260905212810 37 109 9.7 20.9 0.00 0.00 0.00 32 1013.8
20260905212458 37 125 6.4 25.7 0.00 0.00 0.00 32 1013.9
20260905212002 37 144 8.0 25.7 0.00 0.00 0.00 32 1014.0
20260905211213 36 120 8.0 32.2 0.00 0.00 0.00 33 1014.3
20260905210820 37 92 9.7 27.4 0.00 0.00 0.00 32 1014.2
20260905205812 36 102 11.3 32.2 0.00 0.00 0.00 32 1014.3
20260905205307 37 107 11.3 24.1 0.00 0.00 0.00 33 1014.4
20260905205034 37 197 9.7 24.1 0.00 0.00 0.00 33 1014.5
20260905204821 37 197 9.7 24.1 0.00 0.00 0.00 33 1014.5
20260905204312 37 226 9.7 20.9 0.00 0.00 0.00 34 1014.6
20260905203808 36 111 9.7 19.3 0.00 0.00 0.00 31 1014.7
20260905203324 36 182 6.4 17.7 0.00 0.00 0.00 33 1014.8
20260905202813 36 121 8.0 24.1 0.00 0.00 0.00 33 1014.8
20260905202309 36 142 9.7 24.1 0.00 0.00 0.00 32 1014.8
20260905201814 36 135 8.0 19.3 0.00 0.00 0.00 33 1014.9
20260905201342 36 114 6.4 19.3 0.00 0.00 0.00 35 1015.1
20260905201318 36 133 8.0 19.3 0.00 0.00 0.00 33 1014.9
20260905200626 36 124 9.7 19.3 0.00 0.00 0.00 33 1015.2
20260905200038 37 131 9.7 19.3 0.00 0.00 0.00 33 1015.2
20260905195657 37 158 8.0 22.5 0.00 0.00 0.00 34 1015.3
20260905195455 37 148 8.0 19.3 0.00 0.00 0.00 34 1015.3
20260905194727 36 155 8.0 24.1 0.00 0.00 0.00 35 1015.3
20260905194204 36 93 9.7 24.1 0.00 0.00 0.00 33 1015.3
20260905193307 36 148 9.7 20.9 0.00 0.00 0.00 34 1015.3
20260905192807 36 140 11.3 20.9 0.00 0.00 0.00 34 1015.5
20260905192311 36 237 8.0 24.1 0.00 0.00 0.00 34 1015.5
20260905191810 36 169 11.3 24.1 0.00 0.00 0.00 34 1015.6
20260905191536 36 82 9.7 24.1 0.00 0.00 0.00 34 1015.6
20260905190811 36 176 9.7 27.4 0.00 0.00 0.00 34 1015.7
20260905190310 36 221 9.7 27.4 0.00 0.00 0.00 35 1015.7
20260905185811 36 133 9.7 22.5 0.00 0.00 0.00 36 1015.8
20260905185311 36 124 9.7 22.5 0.00 0.00 0.00 36 1015.8
20260905185035 36 223 11.3 22.5 0.00 0.00 0.00 37 1015.9
20260905184905 36 193 8.0 22.5 0.00 0.00 0.00 37 1015.9
20260905183807 35 99 8.0 22.5 0.00 0.00 0.00 39 1016.1
20260905183536 35 102 6.4 22.5 0.00 0.00 0.00 39 1016.2
20260905182809 35 190 9.7 22.5 0.00 0.00 0.00 39 1016.2
20260905182312 35 109 6.4 19.3 0.00 0.00 0.00 41 1016.2
20260905181811 35 162 11.3 22.5 0.00 0.00 0.00 40 1016.3
20260905181308 35 244 6.4 22.5 0.00 0.00 0.00 41 1016.3
20260905180807 34 134 9.7 22.5 0.00 0.00 0.00 41 1016.4
20260905180311 34 171 4.8 24.1 0.00 0.00 0.00 40 1016.4
20260905175810 34 111 11.3 24.1 0.00 0.00 0.00 41 1016.4
20260905175538 33 195 11.3 19.3 0.00 0.00 0.00 43 1016.6
20260905174807 33 199 9.7 22.5 0.00 0.00 0.00 42 1016.7
20260905174309 33 172 12.9 22.5 0.00 0.00 0.00 43 1016.7
20260905173811 33 217 11.3 17.7 0.00 0.00 0.00 42 1016.8
20260905173307 33 221 9.7 24.1 0.00 0.00 0.00 44 1016.8
20260905172807 33 175 12.9 24.1 0.00 0.00 0.00 44 1016.8
20260905172312 33 195 11.3 22.5 0.00 0.00 0.00 45 1016.8
20260905171809 33 171 8.0 22.5 0.00 0.00 0.00 46 1016.9
20260905171705 32 157 9.7 22.5 0.00 0.00 0.00 46 1016.9
20260905170812 32 197 12.9 19.3 0.00 0.00 0.00 47 1016.9
20260905170308 32 123 8.0 19.3 0.00 0.00 0.00 48 1016.9
20260905165811 32 164 8.0 20.9 0.00 0.00 0.00 48 1016.8
20260905165307 32 188 12.9 24.1 0.00 0.00 0.00 48 1016.9
20260905164810 31 130 14.5 24.1 0.00 0.00 0.00 49 1016.7
20260905164308 31 188 6.4 20.9 0.00 0.00 0.00 52 1016.7
20260905164035 31 357 11.3 19.3 0.00 0.00 0.00 51 1016.8
20260905163809 31 357 11.3 19.3 0.00 0.00 0.00 51 1016.8
20260905163310 31 166 9.7 19.3 0.00 0.00 0.00 52 1016.8
20260905162809 30 173 9.7 22.5 0.00 0.00 0.00 54 1016.8
20260905162713 30 151 11.3 22.5 0.00 0.00 0.00 54 1016.8
20260905161810 30 6 9.7 20.9 0.00 0.00 0.00 55 1016.9
20260905161538 29 172 9.7 20.9 0.00 0.00 0.00 56 1016.9
20260905161310 29 172 9.7 20.9 0.00 0.00 0.00 56 1016.9
20260905160809 29 213 8.0 20.9 0.00 0.00 0.00 56 1016.9
20260905160511 28 171 11.3 20.9 0.00 0.00 0.00 59 1016.9
20260905160357 29 66 12.9 20.9 0.00 0.00 0.00 57 1016.9
20260905155308 28 202 11.3 25.7 0.00 0.00 0.00 57 1016.9
20260905154808 28 188 11.3 25.7 0.00 0.00 0.00 59 1016.9
20260905154311 28 199 9.7 24.1 0.00 0.00 0.00 58 1017.1
20260905153806 28 164 9.7 24.1 0.00 0.00 0.00 58 1016.9
20260905153308 28 199 4.8 25.7 0.00 0.00 0.00 59 1016.9
20260905152812 27 227 14.5 25.7 0.00 0.00 0.00 59 1016.9
20260905152308 27 188 9.7 22.5 0.00 0.00 0.00 60 1016.9
20260905151952 27 152 14.5 24.1 0.00 0.00 0.00 61 1016.9
20260905151908 27 197 9.7 24.1 0.00 0.00 0.00 61 1016.9
20260905151317 27 152 14.5 24.1 0.00 0.00 0.00 61 1016.9
20260905150807 27 223 9.7 20.9 0.00 0.00 0.00 62 1016.9
20260905150307 27 192 8.0 20.9 0.00 0.00 0.00 62 1016.9
20260905150032 26 173 6.4 22.5 0.00 0.00 0.00 63 1017.1
20260905145308 26 154 9.7 22.5 0.00 0.00 0.00 64 1017.1
20260905144808 26 134 9.7 22.5 0.00 0.00 0.00 65 1017.1
20260905144307 26 204 9.7 22.5 0.00 0.00 0.00 65 1017.1
20260905143808 26 152 9.7 19.3 0.00 0.00 0.00 65 1017.1
20260905143307 26 93 6.4 19.3 0.00 0.00 0.00 66 1016.9
20260905143143 25 158 8.0 19.3 0.00 0.00 0.00 66 1017.1
20260905142307 25 133 9.7 20.9 0.00 0.00 0.00 67 1017.1
20260905141806 25 214 4.8 20.9 0.00 0.00 0.00 67 1017.2
20260905141308 25 192 8.0 14.5 0.00 0.00 0.00 67 1017.1
20260905140807 25 142 6.4 17.7 0.00 0.00 0.00 68 1017.1
20260905140307 24 145 8.0 17.7 0.00 0.00 0.00 68 1017.2
20260905135806 24 123 8.0 17.7 0.00 0.00 0.00 69 1017.2
20260905135307 24 155 4.8 16.1 0.00 0.00 0.00 70 1017.1
20260905134808 23 113 8.0 16.1 0.00 0.00 0.00 70 1017.1
20260905134636 23 118 4.8 16.1 0.00 0.00 0.00 71 1017.1
20260905134118 23 144 1.6 11.3 0.00 0.00 0.00 72 1017.1
20260905133307 23 103 6.4 11.3 0.00 0.00 0.00 73 1017.1
20260905132806 23 100 3.2 9.7 0.00 0.00 0.00 73 1017.1
20260905132306 22 140 3.2 8.0 0.00 0.00 0.00 74 1017.1
20260905131806 22 178 3.2 8.0 0.00 0.00 0.00 75 1016.9
20260905131631 22 157 3.2 8.0 0.00 0.00 0.00 75 1016.8
20260905130807 22 165 3.2 9.7 0.00 0.00 0.00 75 1016.7
20260905130306 22 169 3.2 9.7 0.00 0.00 0.00 76 1016.7
20260905125814 22 117 3.2 9.7 0.00 0.00 0.00 76 1016.8
20260905125307 22 124 6.4 9.7 0.00 0.00 0.00 76 1016.7
20260905125140 22 116 4.8 9.7 0.00 0.00 0.00 76 1016.6
20260905124314 22 128 6.4 9.7 0.00 0.00 0.00 76 1016.7
20260905123807 22 120 4.8 16.1 0.00 0.00 0.00 76 1016.4
20260905123306 22 128 8.0 16.1 0.00 0.00 0.00 75 1016.5
20260905122806 22 135 6.4 11.3 0.00 0.00 0.00 74 1016.5
20260905122307 22 111 8.0 14.5 0.00 0.00 0.00 74 1016.4
20260905121806 22 141 6.4 17.7 0.00 0.00 0.00 74 1016.4
20260905121306 22 121 8.0 17.7 0.00 0.00 0.00 74 1016.4
20260905120807 22 89 6.4 16.1 0.00 0.00 0.00 74 1016.4
20260905120307 22 102 6.4 16.1 0.00 0.00 0.00 74 1016.4
20260905115806 22 123 6.4 11.3 0.00 0.00 0.00 73 1016.4
20260905115306 22 79 6.4 11.3 0.00 0.00 0.00 73 1016.4
20260905114806 22 116 6.4 11.3 0.00 0.00 0.00 73 1016.3
20260905114308 22 127 3.2 14.5 0.00 0.00 0.00 73 1016.3
20260905113806 22 128 4.8 14.5 0.00 0.00 0.00 73 1016.2
20260905113306 23 89 6.4 16.1 0.00 0.00 0.00 72 1016.3
20260905113136 23 99 9.7 16.1 0.00 0.00 0.00 72 1016.4
20260905112307 23 134 3.2 11.3 0.00 0.00 0.00 71 1016.4
20260905111806 23 102 3.2 11.3 0.00 0.00 0.00 70 1016.4
20260905111306 23 109 4.8 11.3 0.00 0.00 0.00 70 1016.3
20260905110807 23 110 8.0 11.3 0.00 0.00 0.00 69 1016.2
20260905110306 23 107 6.4 11.3 0.00 0.00 0.00 69 1016.1
20260905105806 23 99 4.8 8.0 0.00 0.00 0.00 69 1016.1
20260905105310 23 141 3.2 11.3 0.00 0.00 0.00 68 1016.1
20260905104807 23 106 8.0 11.3 0.00 0.00 0.00 68 1015.9
20260905104306 23 111 4.8 9.7 0.00 0.00 0.00 68 1016.1
20260905103808 23 114 4.8 9.7 0.00 0.00 0.00 67 1015.8
20260905103638 23 100 6.4 8.0 0.00 0.00 0.00 67 1015.9
20260905102806 23 104 1.6 6.4 0.00 0.00 0.00 67 1015.8
20260905102306 23 96 3.2 6.4 0.00 0.00 0.00 67 1015.9
20260905101806 24 110 1.6 6.4 0.00 0.00 0.00 67 1015.8
20260905101306 24 131 3.2 4.8 0.00 0.00 0.00 66 1015.8
20260905100806 24 123 1.6 4.8 0.00 0.00 0.00 66 1015.8
20260905100306 24 135 3.2 8.0 0.00 0.00 0.00 65 1015.8
20260905095806 24 140 3.2 9.7 0.00 0.00 0.00 65 1015.9